Weather History for K6R6 - October, 2013

Change the Weather History Date:

Wednesday, October 23, 2013

  Actual Average (KFST) Record (KFST)
Temperature  
Mean Temperature 62 °F -  
Max Temperature 80 °F 74 °F 90 °F (2012)
Min Temperature 46 °F 51 °F 35 °F (1996)
Degree Days  
Heating Degree Days 2    
Growing Degree Days 12 (Base 50)    
Moisture  
Dew Point 40 °F    
Average Humidity 47    
Maximum Humidity 73    
Minimum Humidity 21    
Precipitation  
Precipitation 0.00 in - - ()
Sea Level Pressure  
Sea Level Pressure 30.08 in    
Wind  
Wind Speed 6 mph (ENE)    
Max Wind Speed 12 mph    
Max Gust Speed 20 mph    
Averages and records for this station are not official NWS values.
T = Trace of Precipitation, MM = Missing Value Source: NWS Daily Summary

Daily Weather History Graph

Daily Weather History Graph

Search for Another Location

Airport or City:

Trip Planner

Search our weather history database for the weather conditions in past years. The results will help you decide how hot, cold, wet, or windy it might be!

Date:

Astronomy

Oct. 23, 2013 Rise Set
Actual Time 7:56 AM CDT 7:09 PM CDT
Civil Twilight 7:32 AM CDT 7:33 PM CDT
Nautical Twilight 7:03 AM CDT 8:01 PM CDT
Astronomical Twilight 6:36 AM CDT 8:29 PM CDT
Moon 10:52 PM CDT (10/23) 12:04 PM CDT (10/23)
Length of Visible Light 12h 01m
Length of Day
11h 13m
Waning Gibbous, 79% of the Moon is Illuminated
Oct 23
Waning Gibbous
Oct 26
Last Quarter
Nov 3
New
Nov 9
First Quarter
Nov 17
Full

Hourly Weather History & Observations

Time (CDT) Temp. Dew Point Humidity Pressure Visibility Wind Dir Wind Speed Gust Speed Precip Events Conditions
12:53 AM 54.0 °F 41.0 °F 62% 30.12 in - West 5.8 mph - N/A   Unknown
1:53 AM 54.0 °F 39.9 °F 59% 30.11 in - WNW 8.1 mph - N/A   Unknown
2:53 AM 53.1 °F 39.9 °F 61% 30.10 in - WNW 9.2 mph - N/A   Unknown
3:53 AM 52.0 °F 39.0 °F 61% 30.08 in - NW 4.6 mph - N/A   Unknown
4:53 AM 48.9 °F 39.0 °F 69% 30.08 in - NNW 3.5 mph - N/A   Unknown
5:53 AM 46.9 °F 37.9 °F 71% 30.09 in - Calm Calm - N/A   Unknown
6:53 AM 46.9 °F 37.9 °F 71% 30.10 in - Calm Calm - N/A   Unknown
7:53 AM 46.0 °F 37.9 °F 73% 30.13 in - Calm Calm - N/A   Unknown
8:53 AM 54.0 °F 42.1 °F 64% 30.14 in - Calm Calm - N/A   Unknown
9:53 AM 63.0 °F 39.9 °F 43% 30.14 in - ENE 3.5 mph - N/A   Unknown
10:53 AM 66.9 °F 41.0 °F 39% 30.14 in - Variable 3.5 mph - N/A   Unknown
11:53 AM 71.1 °F 39.0 °F 31% 30.13 in - ESE 6.9 mph - N/A   Unknown
12:53 PM 73.0 °F 39.9 °F 30% 30.11 in - East 4.6 mph - N/A   Unknown
1:53 PM 75.9 °F 39.0 °F 26% 30.08 in - ESE 11.5 mph - N/A   Unknown
2:53 PM 75.0 °F 43.0 °F 32% 30.05 in - ESE 9.2 mph 19.6 mph N/A   Unknown
3:53 PM 78.1 °F 41.0 °F 27% 30.03 in - SSE 9.2 mph - N/A   Unknown
4:53 PM 79.0 °F 36.0 °F 21% 30.01 in - SE 10.4 mph - N/A   Unknown
5:53 PM 78.1 °F 35.1 °F 21% 30.01 in - ESE 11.5 mph - N/A   Unknown
6:53 PM 73.9 °F 36.0 °F 25% 30.02 in - East 11.5 mph - N/A   Unknown
7:53 PM 68.0 °F 39.0 °F 35% 30.04 in - East 5.8 mph - N/A   Unknown
8:53 PM 62.1 °F 39.9 °F 44% 30.06 in - NE 6.9 mph - N/A   Unknown
9:53 PM 60.1 °F 41.0 °F 49% 30.05 in - NNE 6.9 mph - N/A   Unknown
10:53 PM 59.0 °F 42.1 °F 53% 30.06 in - NNE 8.1 mph - N/A   Unknown
11:53 PM 59.0 °F 42.1 °F 53% 30.06 in - NNE 8.1 mph - N/A   Unknown